FW8901 Weather Reports


Display with metric or nautical units.
time (UTC)temp
F
wind
direction
speed
MPH
gust
MPH
rain 1hr
in
rain 24hr
in
rain mn
in
humidity
%
barometer
mb
20260504212547 75 0.0 0.0 0.00 0.00 0.00 34 1010.1
20260504212047 76 0.0 0.0 0.00 0.00 0.00 35 1010.1
20260504211555 76 0.0 0.0 0.00 0.00 0.00 34 1010.2
20260504211048 76 0.0 0.0 0.00 0.00 0.00 33 1010.2
20260504210551 76 0.0 0.0 0.00 0.00 0.00 36 1010.2
20260504210059 76 0.0 0.0 0.00 0.00 0.00 33 1010.1
20260504205547 76 0.0 0.0 0.00 0.00 0.00 34 1010.1
20260504205047 76 0.0 0.0 0.00 0.00 0.00 33 1010.1
20260504204557 75 0.0 0.0 0.00 0.00 0.00 35 1010.1
20260504204048 75 0.0 0.0 0.00 0.00 0.00 34 1010.1
20260504203548 76 0.0 0.0 0.00 0.00 0.00 32 1010.1
20260504203110 77 0.0 0.0 0.00 0.00 0.00 31 1010.2
20260504202547 77 0.0 0.0 0.00 0.00 0.00 31 1010.2
20260504202049 78 0.0 0.0 0.00 0.00 0.00 31 1010.3
20260504201558 79 0.0 0.0 0.00 0.00 0.00 29 1010.1
20260504201046 80 0.0 0.0 0.00 0.00 0.00 30 1010.2
20260504200548 80 0.0 0.0 0.00 0.00 0.00 29 1009.9
20260504200120 78 0.0 0.0 0.00 0.00 0.00 29 1010.2
20260504195547 79 0.0 0.0 0.00 0.00 0.00 29 1010.2
20260504195047 79 0.0 0.0 0.00 0.00 0.00 28 1010.2
20260504194601 80 0.0 0.0 0.00 0.00 0.00 29 1010.3
20260504194047 78 0.0 0.0 0.00 0.00 0.00 32 1010.4
20260504193549 78 0.0 0.0 0.00 0.00 0.00 30 1010.4
20260504193107 78 0.0 0.0 0.00 0.00 0.00 29 1010.6
20260504192546 79 0.0 0.0 0.00 0.00 0.00 29 1010.7
20260504192050 78 0.0 0.0 0.00 0.00 0.00 29 1010.6
20260504191600 79 0.0 0.0 0.00 0.00 0.00 29 1010.7
20260504191047 79 0.0 0.0 0.00 0.00 0.00 31 1010.9
20260504190548 78 0.0 0.0 0.00 0.00 0.00 30 1010.9
20260504190052 78 0.0 0.0 0.00 0.00 0.00 28 1011.1
20260504185547 78 0.0 0.0 0.00 0.00 0.00 30 1011.1
20260504185048 78 0.0 0.0 0.00 0.00 0.00 28 1011.3
20260504184557 78 0.0 0.0 0.00 0.00 0.00 30 1011.4
20260504184049 78 0.0 0.0 0.00 0.00 0.00 30 1011.5
20260504183547 77 0.0 0.0 0.00 0.00 0.00 31 1011.5
20260504183053 77 0.0 0.0 0.00 0.00 0.00 30 1011.8
20260504182603 77 0.0 0.0 0.00 0.00 0.00 29 1011.9
20260504182046 77 0.0 0.0 0.00 0.00 0.00 31 1012.1
20260504181554 78 0.0 0.0 0.00 0.00 0.00 28 1011.9
20260504181047 78 0.0 0.0 0.00 0.00 0.00 33 1012.1
20260504180548 78 0.0 0.0 0.00 0.00 0.00 29 1012.1
20260504180055 78 0.0 0.0 0.00 0.00 0.00 31 1012.1
20260504175549 75 0.0 0.0 0.00 0.00 0.00 30 1012.3
20260504175048 77 0.0 0.0 0.00 0.00 0.00 30 1012.2
20260504174602 77 0.0 0.0 0.00 0.00 0.00 29 1012.3
20260504174048 76 0.0 0.0 0.00 0.00 0.00 31 1012.4
20260504173548 76 0.0 0.0 0.00 0.00 0.00 34 1012.6
20260504173100 75 0.0 0.0 0.00 0.00 0.00 30 1012.7
20260504172550 74 0.0 0.0 0.00 0.00 0.00 32 1012.4
20260504172047 75 0.0 0.0 0.00 0.00 0.00 32 1012.7
20260504171556 75 0.0 0.0 0.00 0.00 0.00 31 1012.7
20260504171047 75 0.0 0.0 0.00 0.00 0.00 31 1012.7
20260504170547 76 0.0 0.0 0.00 0.00 0.00 32 1012.8
20260504151048 67 0.0 0.0 0.00 0.00 0.00 38 1014.2
20260504150548 67 0.0 0.0 0.00 0.00 0.00 40 1014.3
20260504150103 66 0.0 0.0 0.00 0.00 0.00 40 1014.2
20260504141110 61 0.0 0.0 0.00 0.00 0.00 47 1014.4
20260504140548 60 0.0 0.0 0.00 0.00 0.00 49 1014.3
20260504130547 53 0.0 0.0 0.00 0.00 0.00 62 1014.6
20260504110547 48 0.0 0.0 0.00 0.00 0.00 67 1015.3
20260504100546 49 0.0 0.0 0.00 0.00 0.00 68 1014.9
20260504090104 49 0.0 0.0 0.00 0.00 0.00 67 1015.3
20260504081608 49 0.0 0.0 0.00 0.00 0.00 66 1015.4
20260504081047 49 0.0 0.0 0.00 0.00 0.00 65 1015.4
20260504080546 49 0.0 0.0 0.00 0.00 0.00 65 1015.4
20260504060103 49 0.0 0.0 0.00 0.00 0.00 69 1015.5
20260504050547 48 0.0 0.0 0.00 0.00 0.00 69 1015.6
20260504045547 48 0.0 0.0 0.00 0.00 0.00 69 1015.5
20260504045047 48 0.0 0.0 0.00 0.00 0.00 69 1015.5
20260504044603 48 0.0 0.0 0.00 0.00 0.00 69 1015.5
20260504044047 48 0.0 0.0 0.00 0.00 0.00 69 1015.4
20260504043547 48 0.0 0.0 0.00 0.00 0.00 69 1015.6
20260504043059 48 0.0 0.0 0.00 0.00 0.00 69 1015.6
20260504042546 47 0.0 0.0 0.00 0.00 0.00 69 1015.6
20260504042046 47 0.0 0.0 0.00 0.00 0.00 68 1015.6
20260504041556 47 0.0 0.0 0.00 0.00 0.00 68 1015.5
20260504041048 47 0.0 0.0 0.00 0.00 0.00 68 1015.4
20260504040546 47 0.0 0.0 0.00 0.00 0.00 68 1015.4
20260504040107 47 0.0 0.0 0.00 0.00 0.00 67 1015.5
20260504035546 47 0.0 0.0 0.00 0.00 0.00 67 1015.5
20260504035047 47 0.0 0.0 0.00 0.00 0.00 67 1015.4
20260504034625 47 0.0 0.0 0.00 0.00 0.00 66 1015.5
20260504034100 47 0.0 0.0 0.00 0.00 0.00 66 1015.6
20260504033550 48 0.0 0.0 0.00 0.00 0.00 65 1015.7
20260504033056 48 0.0 0.0 0.00 0.00 0.00 65 1015.6
20260504032547 48 0.0 0.0 0.00 0.00 0.00 64 1015.6
20260504032047 48 0.0 0.0 0.00 0.00 0.00 65 1015.6
20260504031601 48 0.0 0.0 0.00 0.00 0.00 64 1015.6
20260504031048 48 0.0 0.0 0.00 0.00 0.00 63 1015.6
20260504030546 48 0.0 0.0 0.00 0.00 0.00 63 1015.6
20260504030118 48 0.0 0.0 0.00 0.00 0.00 63 1015.6
20260504025549 48 0.0 0.0 0.00 0.00 0.00 62 1015.5
20260504025047 49 0.0 0.0 0.00 0.00 0.00 62 1015.5
20260504024600 49 0.0 0.0 0.00 0.00 0.00 60 1015.6
20260504024048 49 0.0 0.0 0.00 0.00 0.00 60 1015.6
20260504023545 49 0.0 0.0 0.00 0.00 0.00 60 1015.5
20260504023055 49 0.0 0.0 0.00 0.00 0.00 60 1015.5
20260504022546 49 0.0 0.0 0.00 0.00 0.00 60 1015.5
20260504022048 49 0.0 0.0 0.00 0.00 0.00 59 1015.5
20260504021558 50 0.0 0.0 0.00 0.00 0.00 59 1015.5
20260504021104 50 0.0 0.0 0.00 0.00 0.00 57 1015.6
20260504020547 50 0.0 0.0 0.00 0.00 0.00 57 1015.5
20260504020107 50 0.0 0.0 0.00 0.00 0.00 56 1015.4
20260504015544 50 0.0 0.0 0.00 0.00 0.00 56 1015.3
20260504015045 51 0.0 0.0 0.00 0.00 0.00 55 1015.3
20260504014556 51 0.0 0.0 0.00 0.00 0.00 55 1015.4
20260504014046 51 0.0 0.0 0.00 0.00 0.00 55 1015.3
20260504013545 51 0.0 0.0 0.00 0.00 0.00 54 1015.3
20260504013056 52 0.0 0.0 0.00 0.00 0.00 54 1015.2
20260504012548 52 0.0 0.0 0.00 0.00 0.00 53 1015.1
20260504012048 52 0.0 0.0 0.00 0.00 0.00 53 1015.0
20260504011553 53 0.0 0.0 0.00 0.00 0.00 53 1015.0
20260504011048 53 0.0 0.0 0.00 0.00 0.00 52 1014.8
20260504010609 53 0.0 0.0 0.00 0.00 0.00 50 1014.9
20260504010051 54 0.0 0.0 0.00 0.00 0.00 49 1014.8
20260504005550 54 0.0 0.0 0.00 0.00 0.00 47 1014.8
20260504005048 54 0.0 0.0 0.00 0.00 0.00 47 1014.7
20260504004552 55 0.0 0.0 0.00 0.00 0.00 48 1014.7
20260504004045 55 0.0 0.0 0.00 0.00 0.00 47 1014.7
20260504003544 56 0.0 0.0 0.00 0.00 0.00 46 1014.7
20260504003100 56 0.0 0.0 0.00 0.00 0.00 46 1014.6
20260504002545 57 0.0 0.0 0.00 0.00 0.00 46 1014.7
20260504002045 57 0.0 0.0 0.00 0.00 0.00 45 1014.5
20260504001603 58 0.0 0.0 0.00 0.00 0.00 43 1014.7
20260504001048 58 0.0 0.0 0.00 0.00 0.00 41 1014.7
20260504000546 59 0.0 0.0 0.00 0.00 0.00 40 1014.6
20260504000057 59 0.0 0.0 0.00 0.00 0.00 39 1014.7
20260503235546 60 0.0 0.0 0.00 0.00 0.00 40 1014.6
20260503235048 60 0.0 0.0 0.00 0.00 0.00 39 1014.5
20260503234555 60 0.0 0.0 0.00 0.00 0.00 38 1014.4
20260503234047 61 0.0 0.0 0.00 0.00 0.00 38 1014.4
20260503233548 61 0.0 0.0 0.00 0.00 0.00 38 1014.4
20260503233100 61 0.0 0.0 0.00 0.00 0.00 38 1014.4
20260503232547 62 0.0 0.0 0.00 0.00 0.00 38 1014.4
20260503232048 62 0.0 0.0 0.00 0.00 0.00 39 1014.3
20260503231555 62 0.0 0.0 0.00 0.00 0.00 38 1014.3
20260503231048 62 0.0 0.0 0.00 0.00 0.00 33 1014.2
20260503230546 62 0.0 0.0 0.00 0.00 0.00 35 1014.2
20260503230053 62 0.0 0.0 0.00 0.00 0.00 33 1014.1
20260503225547 62 0.0 0.0 0.00 0.00 0.00 32 1014.2
20260503225047 62 0.0 0.0 0.00 0.00 0.00 30 1014.1
20260503224554 62 0.0 0.0 0.00 0.00 0.00 29 1014.2
20260503224047 62 0.0 0.0 0.00 0.00 0.00 29 1014.2
20260503223549 63 0.0 0.0 0.00 0.00 0.00 28 1014.3
20260503223053 63 0.0 0.0 0.00 0.00 0.00 27 1014.3
20260503222548 63 0.0 0.0 0.00 0.00 0.00 28 1014.2
20260503222046 63 0.0 0.0 0.00 0.00 0.00 27 1014.2
20260503221550 63 0.0 0.0 0.00 0.00 0.00 29 1014.2
20260503221046 63 0.0 0.0 0.00 0.00 0.00 28 1014.3
20260503220546 63 0.0 0.0 0.00 0.00 0.00 28 1014.2
20260503220055 63 0.0 0.0 0.00 0.00 0.00 28 1014.3
20260503215547 63 0.0 0.0 0.00 0.00 0.00 30 1014.3
20260503215046 62 0.0 0.0 0.00 0.00 0.00 30 1014.4
20260503214601 63 0.0 0.0 0.00 0.00 0.00 28 1014.3
20260503214047 63 0.0 0.0 0.00 0.00 0.00 28 1014.3
20260503213547 63 0.0 0.0 0.00 0.00 0.00 30 1014.4
20260503213054 63 0.0 0.0 0.00 0.00 0.00 27 1014.4